Regional Weather Roundup
Issued by NWS San Angelo, TX

Home | Current Version | Previous Version | Text Only | Print | Product List | Glossary On
Versions: 1 2 3 4 5 6 7 8 9 10 11 12 13 14 15 16 17 18 19 20 21 22 23 24 25 26 27 28 29 30 31 32 33 34 35 36 37 38 39 40 41 42 43 44 45 46 47 48 49 50
000
ASUS44 KSJT 281211
RWRSJT
WEST CENTRAL TEXAS REGIONAL WEATHER ROUNDUP
NATIONAL WEATHER SERVICE SAN ANGELO TX
700 AM CDT WED SEP 28 2016

NOTE: "FAIR" INDICATES FEW OR NO CLOUDS BELOW 12,000 FEET WITH NO
SIGNIFICANT WEATHER AND/OR OBSTRUCTIONS TO VISIBILITY.

TXZ049-054-064>066-071>073-076>078-098-099-113-114-127-128-139-140-
154-155-168>170-281300
...LOCATIONS ACROSS WEST CENTRAL TEXAS...

CITY           SKY/WX    TMP DP  RH WIND       PRES   REMARKS
SAN ANGELO     CLEAR     55  53  93 SW3       30.10R
ABILENE        CLEAR     56  49  77 CALM      30.10R
DYESS AFB      CLEAR     50  47  88 SE2       30.08R
JUNCTION       CLEAR     56  50  81 W3        30.09S
SWEETWATER     CLEAR     58  48  69 SW9       30.13R
BROWNWOOD      CLEAR     52  50  93 CALM      30.09R
COLEMAN        SUNNY     54  50  87 CALM      30.09S
SONORA         CLEAR     55  54  94 CALM      30.15S
OZONA          FAIR      54  52  94 CALM      30.15R
BRADY          NOT AVBL
$$

TEXAS PANHANDLE/OKLAHOMA PANHANDLE

CITY           SKY/WX    TMP DP  RH WIND       PRES   REMARKS
AMARILLO       CLEAR     54  38  54 W5        30.15R
BORGER         CLEAR     55  40  56 W9        30.12S
CANADIAN       CLEAR     49  46  88 CALM      30.09R
DALHART        CLOUDY    41  35  79 W6        30.17R WCI  37
DUMAS          SUNNY     49  36  61 W8        30.15R
GUYMON         NOT AVBL
HEREFORD       CLOUDY    47  40  77 W6        30.17S
PAMPA          CLOUDY    56  41  57 W9        30.13R
PERRYTON       CLEAR     52  41  67 W5        30.09R
$$

SOUTHERN PANHANDLE/SOUTH PLAINS/ROLLING PLAINS

CITY           SKY/WX    TMP DP  RH WIND       PRES   REMARKS
LUBBOCK        PTCLDY    50  44  80 NW6       30.13S
SNYDER           N/A     51  46  82 SW3       30.12R
CHILDRESS      CLOUDY    57  47  69 NW6       30.08S
SEMINOLE       SUNNY     51  49  91 CALM      30.16S
$$

PERMIAN BASIN

CITY           SKY/WX    TMP DP  RH WIND       PRES   REMARKS
MIDLAND        CLEAR     52  49  89 NW6       30.13S
ODESSA         CLEAR     55  49  80 NW5       30.14S
WINK           CLEAR     56  54  93 N5        30.12S
$$

FAR WEST/SOUTHWEST MOUNTAINS/TRANS PECOS

CITY           SKY/WX    TMP DP  RH WIND       PRES   REMARKS
ALPINE         MOSUNNY   56  53  92 SW5       30.27R
DRYDEN           N/A     60  55  83 W5        30.09S
EL PASO        PTCLDY    60  50  69 NE3       30.18R
FORT STOCKTON  CLEAR     60  56  86 SW9       30.13R
GUADALUPE PASS CLEAR     55  51  86 SW13      30.25S
MARFA          NOT AVBL
PECOS          SUNNY     57  55  95 CALM      30.13R
$$

DALLAS/FORT WORTH METROPLEX

CITY           SKY/WX    TMP DP  RH WIND       PRES   REMARKS
DFW AIRPORT    MOCLDY    60  51  72 SW6       30.03R
FTW MEACHAM    PTCLDY    59  50  72 CALM      30.03S
DAL-EXECUTIVE  CLEAR     59  51  75 W6        30.03R
GRAND PRAIRIE  CLEAR     57  50  77 CALM      30.05S
ADDISON        NOT AVBL
MESQUITE       SUNNY     54  54 100 CALM      30.03S
LANCASTER      CLOUDY    53  49  86 CALM      30.04R
$$

NORTH CENTRAL TEXAS

CITY           SKY/WX    TMP DP  RH WIND       PRES   REMARKS
SHRMAN/DENISON CLOUDY    57  52  84 SW3       30.03R
GAINESVILLE      N/A     55  49  79 SW3       30.05R
BRIDGEPORT     MOSUNNY   54  52  94 CALM      30.06S
DENTON           N/A     53  50  89 CALM      30.03R
WAXAHACHIE     SUNNY     55  49  81 W6        30.05R
GRANBURY       MOSUNNY   51  49  92 CALM      30.07R
$$

WESTERN NORTH TEXAS

CITY           SKY/WX    TMP DP  RH WIND       PRES   REMARKS
WICHITA FALLS  CLOUDY    57  51  80 W3        30.03S
VERNON         CLOUDY    56  48  75 W5        30.05S
BRECKENRIDGE     N/A     55  48  80 SW5       30.07R
COMANCHE       CLEAR     56  49  76 CALM      30.07S
$$

CENTRAL AND SOUTH CENTRAL TEXAS

CITY           SKY/WX    TMP DP  RH WIND       PRES   REMARKS
AUSTIN/BERGSTM PTCLDY    63  62  97 W3        30.04R
WACO           CLEAR     56  55  97 W6        30.04S
HILLSBORO      MOSUNNY   50  48  93 CALM      30.05R
TEMPLE         CLEAR     58  57  97 CALM      30.06R
KILLEEN-GRAY   CLEAR     59  56  92 N5        30.05R
FORT HOOD      CLEAR     60  53  78 CALM      30.03R
GEORGETOWN     CLEAR     66  61  82 CALM      30.06R
LAGO VISTA     FAIR      65  59  80 W5        30.06S
SAN MARCOS     CLEAR     63  61  94 NW3       30.06S
NEW BRAUNFELS  CLEAR     63  62  97 CALM      30.03S
RANDOLPH AFB   CLEAR     64  64 100 NW7       30.05R
SAN ANTONIO    CLEAR     64  61  90 NW3       30.05S
STINSON        CLEAR     66  63  90 CALM      30.03R
PLEASANTON     NOT AVBL
LA GRANGE      CLEAR     66  65  96 CALM      30.01S
GIDDINGS       SUNNY     62  61  95 CALM      30.07R
$$

EAST TEXAS

CITY           SKY/WX    TMP DP  RH WIND       PRES   REMARKS
PARIS          CLEAR     54  46  76 NW3       30.01R
CLARKSVILLE    NOT AVBL
TYLER          PTCLDY    55  53  93 CALM      30.02R
LONGVIEW       PTCLDY    56  56 100 CALM      30.02R
PALESTINE      SUNNY     56  56 100 CALM      30.04R
NACOGDOCHES    CLEAR     59  57  94 CALM      30.01R
$$

TEXAS HILL COUNTRY AND EDWARDS PLATEAU

CITY           SKY/WX    TMP DP  RH WIND       PRES   REMARKS
LLANO          MOSUNNY   61  61 100 CALM      30.10S
HORSESHOE BAY  FAIR      59  58  97 CALM      30.06S
KERRVILLE      CLEAR     59  58  97 CALM      30.08S
FREDERICKSBRG  CLEAR     58  57  95 CALM      30.09R
ROCKSPRINGS    SUNNY     64  61  88 CALM      30.12S
HONDO          CLEAR     63  61  93 CALM      30.06R
UVALDE         SUNNY     64  63  97 CALM      30.07R
DEL RIO        CLEAR     62  61  96 CALM      30.06S
$$

SOUTHEAST TEXAS

CITY           SKY/WX    TMP DP  RH WIND       PRES   REMARKS
COLLEGE STN    CLEAR     65  62  90 N3        30.03R
CALDWELL       NOT AVBL
CROCKETT       NOT AVBL
BRENHAM        CLEAR     66  64  95 CALM      30.04R
HUNTSVILLE     CLEAR     63  61  93 CALM      30.03R
CONROE         CLEAR     64  63  96 NW3       30.03R
HOUSTON BUSH   PTCLDY    69  64  84 CALM      30.01R
HOUSTON HOBBY  PTCLDY    68  64  87 NE5       30.01R
PERLAND        CLEAR     71  67  87 CALM      30.02R
WHARTON        SUNNY     66  64  94 CALM      30.02S
$$

THE UPPER TEXAS COAST

CITY           SKY/WX    TMP DP  RH WIND       PRES   REMARKS
ORANGE         SUNNY     66  66 100 CALM      30.02R
PORT ARTHUR    CLEAR     68  62  81 N5        30.00R
GALVESTON      CLEAR     75  69  81 NE8       30.00R
ANGLETON       CLEAR     69  67  93 N3        30.01R
BAY CITY       SUNNY     69  67  94 CALM      30.02R
$$

TEXAS COASTAL BEND, RIO GRANDE PLAINS DEEP SOUTH TEXAS

CITY           SKY/WX    TMP DP  RH WIND       PRES   REMARKS
VICTORIA       CLEAR     64  63  96 N5        30.03R
BEEVILLE       FAIR      67  67 100 N3        30.03S
ROCKPORT       PTCLDY    71  65  81 N7        30.01R
PORT ARANSAS   SUNNY     73  70  91 N7        30.01R
PORT LAVACA    SUNNY     66  66 100 CALM      30.02R
CORPUS CHRISTI PTCLDY    71  67  87 N7        30.02R
KINGSVILLE NAS MOCLDY    70  69  97 N6        30.02R
COTULLA        CLEAR     70  67  90 CALM      30.05R
LAREDO         CLEAR     68  65  90 CALM      30.06R
BROWNSVILLE    LGT RAIN  72  71  97 NW9       29.99R
PORT ISABEL    CLOUDY    72  72 100 NW15      29.97R FOG
HEBBRONVILLE   SUNNY     67  66  94 NW5       30.06R
MCALLEN        LGT RAIN  74  67  78 NW8       30.02R
WESLACO        CLOUDY    72  67  83 N9        30.00S
FALFURRIAS     SUNNY     70  66  86 NW3       30.02S
EDINBURG       CLOUDY    73  66  80 N7        30.02S
$$



USA.gov is the U.S. government's official web portal to all federal, state and local government web resources and services.